Weather History for KVTN - August, 2013

Change the Weather History Date:

Friday, August 30, 2013

  Actual Average Record
Temperature  
Mean Temperature 80 °F 70 °F  
Max Temperature 94 °F 84 °F 102 °F (1948)
Min Temperature 65 °F 55 °F 34 °F (1935)
Degree Days  
Heating Degree Days 0 2  
Month to date heating degree days 0 12  
Since 1 June heating degree days 57 81  
Since 1 July heating degree days 3 20  
Cooling Degree Days 15 6  
Month to date cooling degree days 301 254  
Year to date cooling degree days 778 729  
Since 1 June cooling degree days 739 695  
Growing Degree Days 28 (Base 50)    
Moisture  
Dew Point 64 °F    
Average Humidity 64    
Maximum Humidity 100    
Minimum Humidity 28    
Precipitation  
Precipitation 0.01 in 0.04 in 1.12 in (1951)
Month to date precipitation 2.01 2.13  
Year to date precipitation 17.64 16.06  
Snow  
Snow 0.00 in 0.00 in 0.00 in ()
Month to date snowfall 0.0 0.0  
Since 1 June snowfall 0.0 0.0  
Since 1 July snowfall 0.0 0.0  
Snow Depth 0.00 in    
Sea Level Pressure  
Sea Level Pressure 29.95 in    
Wind  
Wind Speed 7 mph (West)    
Max Wind Speed 40 mph    
Max Gust Speed 48 mph    
Visibility 9 miles    
Events Rain , Thunderstorm    
T = Trace of Precipitation, MM = Missing Value Source: NWS Daily Summary

Daily Weather History Graph

Daily Weather History Graph

Search for Another Location

Airport or City:

Trip Planner

Search our weather history database for the weather conditions in past years. The results will help you decide how hot, cold, wet, or windy it might be!

Date:

Astronomy

Aug. 30, 2013 Rise Set
Actual Time 7:04 AM CDT 8:19 PM CDT
Civil Twilight 6:35 AM CDT 8:48 PM CDT
Nautical Twilight 6:00 AM CDT 9:23 PM CDT
Astronomical Twilight 5:23 AM CDT 10:00 PM CDT
Moon 1:40 AM CDT (8/30) 4:40 PM CDT (8/30)
Length of Visible Light 14h 13m
Length of Day
13h 14m
Waning Crescent, 29% of the Moon is Illuminated
Aug 30
Waning Crescent
Sep 5
New
Sep 12
First Quarter
Sep 19
Full
Sep 26
Last Quarter

Hourly Weather History & Observations

Time (CDT) Temp. Heat Index Dew Point Humidity Pressure Visibility Wind Dir Wind Speed Gust Speed Precip Events Conditions
12:52 AM 73.0 °F - 66.9 °F 81% 29.94 in 10.0 mi Calm Calm - N/A   Clear
1:52 AM 72.0 °F - 68.0 °F 87% 29.95 in 10.0 mi NW 4.6 mph - N/A   Clear
2:52 AM 69.1 °F - 66.9 °F 93% 29.95 in 9.0 mi West 3.5 mph - N/A   Clear
3:52 AM 68.0 °F - 66.9 °F 96% 29.95 in 8.0 mi NW 4.6 mph - N/A   Clear
4:52 AM 66.9 °F - 66.0 °F 97% 29.95 in 7.0 mi WNW 4.6 mph - N/A   Clear
5:52 AM 66.9 °F - 64.9 °F 93% 29.96 in 8.0 mi NW 4.6 mph - N/A   Clear
6:52 AM 64.9 °F - 64.0 °F 97% 29.98 in 6.0 mi WNW 3.5 mph - N/A   Clear
7:52 AM 66.9 °F - 64.9 °F 93% 30.00 in 4.0 mi West 3.5 mph - N/A   Clear
8:52 AM 73.0 °F - 66.9 °F 81% 30.01 in 10.0 mi Calm Calm - N/A   Clear
9:52 AM 75.9 °F - 66.9 °F 74% 30.01 in 10.0 mi East 8.1 mph - N/A   Clear
10:52 AM 82.0 °F 85.5 °F 69.1 °F 65% 30.00 in 10.0 mi East 8.1 mph - N/A   Clear
11:52 AM 84.9 °F 87.6 °F 66.9 °F 55% 29.99 in 10.0 mi Variable 5.8 mph - N/A   Clear
12:52 PM 84.9 °F 86.1 °F 64.0 °F 49% 29.98 in 10.0 mi East 5.8 mph - N/A   Clear
2:52 PM 90.0 °F 90.6 °F 63.0 °F 40% 29.95 in 10.0 mi Calm Calm - N/A   Clear
3:52 PM 91.9 °F 91.2 °F 59.0 °F 33% 29.92 in 10.0 mi Variable 6.9 mph - N/A   Clear
4:52 PM 93.0 °F 91.7 °F 57.0 °F 30% 29.91 in 10.0 mi East 5.8 mph - N/A   Clear
5:52 PM 93.0 °F 91.4 °F 55.9 °F 29% 29.88 in 10.0 mi East 8.1 mph - N/A   Clear
6:52 PM 88.0 °F 86.9 °F 57.9 °F 36% 29.89 in 10.0 mi East 5.8 mph - N/A   Clear
7:52 PM 86.0 °F 85.7 °F 60.1 °F 41% 29.89 in 10.0 mi ESE 6.9 mph - N/A   Clear
8:52 PM 84.0 °F 84.4 °F 61.0 °F 46% 29.91 in 10.0 mi Calm Calm - N/A Thunderstorm Partly Cloudy
9:09 PM 80.6 °F 82.3 °F 64.4 °F 58% 30.00 in 8.0 mi WSW 12.7 mph - 0.00 in Rain , Thunderstorm Light Thunderstorms and Rain
9:30 PM 78.8 °F - 62.6 °F 57% 30.01 in 10.0 mi SW 10.4 mph - 0.01 in   Mostly Cloudy
9:42 PM 77.0 °F - 64.4 °F 65% 30.04 in 10.0 mi WNW 18.4 mph 31.1 mph 0.01 in Thunderstorm Thunderstorm
9:52 PM 75.0 °F - 64.0 °F 69% 29.98 in 10.0 mi West 24.2 mph 28.8 mph 0.01 in Rain Light Rain
10:52 PM 71.1 °F - 64.9 °F 81% 29.86 in 10.0 mi South 28.8 mph 38.0 mph 0.00 in   Scattered Clouds
11:52 PM 73.0 °F - 61.0 °F 66% 29.86 in 10.0 mi SSW 16.1 mph 31.1 mph N/A   Clear